Location: Gorze? G�rny
(49.8500°N, 19.5000°E)
Time: 03:55:06
(UTC+00:00)

Cosmos 1726 - Pass Details

Date: 13 May 2021
Orbit: 478 x 498 km, 82.5° (Epoch: 20 June)

Event Time Altitude Azimuth Distance (km) Brightness Sun altitude
Rises 22:50:06 0° 0° (N) 2,591 7.3 -21.5°
Reaches altitude 10° 22:52:34 10° 16° (NNE) 1,699 5.9 -21.5°
Maximum altitude 22:55:34 23° 70° (ENE) 1,094 4.1 -21.4°
Enters shadow 22:56:43 20° 97° (E) 1,198 4.0 -21.4°
